When you browse on this site, cookies collect data to enhance your experience and personalize the content and advertising you see.
Visit our Privacy Policy to learn more. By continuing to use the site, you agree to this use of cookies and data.
  • In Belgium
  • List of Countries
  • For 7 days
  • Water Temperature
  • Satellite Maps
  • Weather Map
  • Weather Widgets
  • user-avatar
    Login

    Hourly Weather Kostygovo

    Today, 18 June, Tuesday

    Time Temperature Precipitation Wind Pressure Humidity
    00:00 +16°C° 0 mm 1 mps 745 mmHg 83%
    01:00 +16°C° 0 mm 2 mps 745 mmHg 87%
    02:00 +15°C° 0 mm 2 mps 745 mmHg 90%
    03:00 +16°C° 0 mm 2 mps 746 mmHg 87%
    04:00 +17°C° 0 mm 2 mps 746 mmHg 84%
    05:00 +17°C° 0 mm 2 mps 746 mmHg 81%
    06:00 +19°C° 0 mm 3 mps 746 mmHg 72%
    07:00 +20°C° 0 mm 3 mps 746 mmHg 63%
    08:00 +22°C° 0 mm 3 mps 746 mmHg 54%
    09:00 +23°C° 0 mm 4 mps 746 mmHg 50%
    10:00 +25°C° 0 mm 4 mps 746 mmHg 47%
    11:00 +26°C° 0 mm 5 mps 746 mmHg 43%
    12:00 +26°C° 0 mm 5 mps 746 mmHg 41%
    13:00 +26°C° 0 mm 5 mps 746 mmHg 40%
    14:00 +27°C° 0 mm 5 mps 746 mmHg 38%
    15:00 +26°C° 0 mm 4 mps 746 mmHg 40%
    16:00 +25°C° 0 mm 4 mps 746 mmHg 42%
    17:00 +25°C° 0 mm 3 mps 746 mmHg 44%
    18:00 +22°C° 0 mm 3 mps 746 mmHg 54%
    19:00 +20°C° 0 mm 2 mps 746 mmHg 63%
    20:00 +18°C° 0 mm 2 mps 746 mmHg 73%
    21:00 +18°C° 0 mm 2 mps 747 mmHg 76%
    22:00 +17°C° 0 mm 2 mps 747 mmHg 79%
    23:00 +16°C° 0 mm 2 mps 747 mmHg 82%

    Tomorrow, 19 June, Wednesday

    Time Temperature Precipitation Wind Pressure Humidity
    00:00 +15°C° 0 mm 2 mps 748 mmHg 84%
    01:00 +14°C° 0 mm 2 mps 748 mmHg 87%
    02:00 +14°C° 0 mm 2 mps 748 mmHg 90%
    03:00 +14°C° 0 mm 2 mps 748 mmHg 85%
    04:00 +15°C° 0 mm 2 mps 748 mmHg 81%
    05:00 +16°C° 0 mm 2 mps 749 mmHg 76%
    06:00 +17°C° 0 mm 2 mps 749 mmHg 70%
    07:00 +19°C° 0 mm 2 mps 749 mmHg 63%
    08:00 +21°C° 0 mm 2 mps 749 mmHg 57%
    09:00 +24°C° 0 mm 2 mps 749 mmHg 52%
    10:00 +25°C° 0 mm 2 mps 749 mmHg 47%
    11:00 +27°C° 0 mm 3 mps 749 mmHg 42%
    12:00 +27°C° 0 mm 3 mps 749 mmHg 40%
    13:00 +28°C° 0 mm 3 mps 749 mmHg 37%
    14:00 +28°C° 0 mm 3 mps 749 mmHg 35%
    15:00 +28°C° 0 mm 2 mps 749 mmHg 38%
    16:00 +28°C° 0 mm 2 mps 749 mmHg 42%
    17:00 +27°C° 0 mm 2 mps 749 mmHg 45%
    18:00 +25°C° 0 mm 2 mps 749 mmHg 53%
    19:00 +21°C° 0 mm 2 mps 748 mmHg 61%
    20:00 +19°C° 0 mm 2 mps 748 mmHg 68%
    21:00 +19°C° 0 mm 1 mps 749 mmHg 68%
    22:00 +18°C° 0 mm 1 mps 749 mmHg 69%
    23:00 +15°C° 0 mm 1 mps 749 mmHg 69%

    Day after tomorrow, 20 June, Thursday

    Time Temperature Precipitation Wind Pressure Humidity
    00:00 +15°C° 0 mm 1 mps 749 mmHg 70%
    01:00 +15°C° 0 mm 1 mps 749 mmHg 72%
    02:00 +15°C° 0 mm 1 mps 749 mmHg 73%
    03:00 +15°C° 0 mm 1 mps 749 mmHg 74%
    04:00 +16°C° 0 mm 1 mps 750 mmHg 75%
    05:00 +18°C° 0 mm 1 mps 750 mmHg 76%
    06:00 +20°C° 0 mm 1 mps 750 mmHg 68%
    07:00 +22°C° 0 mm 1 mps 750 mmHg 60%
    08:00 +24°C° 0 mm 1 mps 750 mmHg 52%
    09:00 +25°C° 0 mm 1 mps 750 mmHg 47%
    10:00 +27°C° 0 mm 1 mps 750 mmHg 43%
    11:00 +28°C° 0 mm 2 mps 750 mmHg 39%
    12:00 +28°C° 0 mm 2 mps 749 mmHg 38%
    13:00 +28°C° 0 mm 2 mps 749 mmHg 37%
    14:00 +29°C° 0 mm 2 mps 749 mmHg 37%
    15:00 +28°C° 0 mm 2 mps 749 mmHg 42%
    16:00 +28°C° 0 mm 1 mps 749 mmHg 48%
    17:00 +28°C° 0 mm 1 mps 749 mmHg 54%
    18:00 +26°C° 0 mm 1 mps 748 mmHg 60%
    19:00 +24°C° 0 mm 2 mps 748 mmHg 66%
    20:00 +21°C° 0 mm 2 mps 748 mmHg 72%
    21:00 +20°C° 0 mm 2 mps 748 mmHg 71%
    22:00 +20°C° 0 mm 2 mps 748 mmHg 71%
    23:00 +19°C° 0 mm 2 mps 749 mmHg 70%

    21 June, Friday

    Time Temperature Precipitation Wind Pressure Humidity
    00:00 +19°C° 0 mm 2 mps 749 mmHg 73%
    01:00 +18°C° 0 mm 2 mps 749 mmHg 76%
    02:00 +18°C° 0 mm 2 mps 749 mmHg 80%
    03:00 +18°C° 0 mm 2 mps 749 mmHg 81%
    04:00 +20°C° 0 mm 1 mps 749 mmHg 82%
    05:00 +20°C° 0 mm 1 mps 749 mmHg 83%
    06:00 +21°C° 0 mm 2 mps 749 mmHg 75%
    07:00 +24°C° 0 mm 3 mps 749 mmHg 67%
    08:00 +25°C° 0 mm 3 mps 749 mmHg 58%
    09:00 +26°C° 0.2 mm 4 mps 749 mmHg 57%
    10:00 +27°C° 0.2 mm 4 mps 749 mmHg 56%
    11:00 +27°C° 0.2 mm 4 mps 749 mmHg 55%
    12:00 +28°C° 0 mm 4 mps 749 mmHg 54%
    13:00 +28°C° 0 mm 4 mps 748 mmHg 52%
    14:00 +29°C° 0 mm 4 mps 748 mmHg 51%
    15:00 +28°C° 0.1 mm 4 mps 748 mmHg 56%
    16:00 +28°C° 0.1 mm 4 mps 748 mmHg 61%
    17:00 +27°C° 0.1 mm 4 mps 748 mmHg 66%
    18:00 +26°C° 0 mm 3 mps 747 mmHg 72%
    19:00 +24°C° 0 mm 3 mps 747 mmHg 78%
    20:00 +23°C° 0 mm 2 mps 747 mmHg 84%
    21:00 +21°C° 0.1 mm 2 mps 747 mmHg 88%
    22:00 +20°C° 0.1 mm 2 mps 747 mmHg 91%
    23:00 +19°C° 0.1 mm 2 mps 747 mmHg 95%

    22 June, Saturday

    Time Temperature Precipitation Wind Pressure Humidity
    00:00 +19°C° 0 mm 2 mps 747 mmHg 95%
    01:00 +19°C° 0 mm 2 mps 747 mmHg 95%
    02:00 +19°C° 0 mm 2 mps 747 mmHg 95%
    03:00 +19°C° 0.3 mm 2 mps 747 mmHg 95%
    04:00 +19°C° 0.3 mm 2 mps 747 mmHg 96%
    05:00 +19°C° 0.3 mm 2 mps 747 mmHg 96%
    06:00 +20°C° 0.5 mm 3 mps 747 mmHg 94%
    07:00 +21°C° 0.5 mm 3 mps 747 mmHg 93%
    08:00 +22°C° 0.5 mm 3 mps 746 mmHg 91%
    09:00 +23°C° 1.1 mm 4 mps 746 mmHg 89%
    10:00 +25°C° 1.1 mm 4 mps 746 mmHg 86%
    11:00 +26°C° 1.1 mm 4 mps 746 mmHg 84%
    12:00 +27°C° 0.7 mm 4 mps 746 mmHg 81%
    13:00 +27°C° 0.7 mm 4 mps 745 mmHg 78%
    14:00 +28°C° 0.7 mm 4 mps 745 mmHg 76%
    15:00 +26°C° 1.2 mm 3 mps 745 mmHg 81%
    16:00 +25°C° 1.2 mm 3 mps 745 mmHg 86%
    17:00 +24°C° 1.2 mm 3 mps 745 mmHg 92%
    18:00 +23°C° 0.1 mm 2 mps 746 mmHg 93%
    19:00 +23°C° 0.1 mm 2 mps 746 mmHg 94%
    20:00 +22°C° 0.1 mm 1 mps 746 mmHg 95%
    21:00 +21°C° 0 mm 1 mps 746 mmHg 96%
    22:00 +21°C° 0 mm 1 mps 746 mmHg 96%
    23:00 +20°C° 0 mm 1 mps 747 mmHg 97%

    23 June, Sunday

    Time Temperature Precipitation Wind Pressure Humidity
    00:00 +20°C° 0 mm 1 mps 747 mmHg 97%
    01:00 +20°C° 0 mm 1 mps 747 mmHg 97%
    02:00 +20°C° 0 mm 1 mps 748 mmHg 98%
    03:00 +20°C° 0 mm 1 mps 748 mmHg 97%
    04:00 +19°C° 0 mm 1 mps 748 mmHg 96%
    05:00 +18°C° 0 mm 2 mps 748 mmHg 96%
    06:00 +19°C° 0 mm 2 mps 748 mmHg 89%
    07:00 +21°C° 0 mm 1 mps 748 mmHg 82%
    08:00 +23°C° 0 mm 1 mps 748 mmHg 75%
    09:00 +25°C° 0 mm 1 mps 748 mmHg 69%
    10:00 +27°C° 0 mm 1 mps 748 mmHg 63%
    11:00 +29°C° 0 mm 1 mps 748 mmHg 57%
    12:00 +29°C° 0 mm 1 mps 748 mmHg 57%
    13:00 +29°C° 0 mm 1 mps 748 mmHg 58%
    14:00 +29°C° 0 mm 1 mps 747 mmHg 58%
    15:00 +28°C° 0.5 mm 1 mps 747 mmHg 65%
    16:00 +28°C° 0.5 mm 1 mps 747 mmHg 72%
    17:00 +27°C° 0.5 mm 1 mps 746 mmHg 79%
    18:00 +25°C° 0.3 mm 1 mps 746 mmHg 83%
    19:00 +24°C° 0.3 mm 1 mps 746 mmHg 87%
    20:00 +23°C° 0.3 mm 1 mps 746 mmHg 91%
    21:00 +22°C° 0.2 mm 1 mps 746 mmHg 92%
    22:00 +21°C° 0.2 mm 1 mps 746 mmHg 94%
    23:00 +19°C° 0.2 mm 2 mps 746 mmHg 96%
    Show more